Beckley, WV

4:34 AM EDT on September 22, 2017 (GMT -0400)
Raleigh County Memorial

Weather History for KBKW - August, 2014

Change the Weather History Date:

Friday, August 8, 2014

  Actual Average Record
Temperature  
Mean Temperature 65 °F 70 °F  
Max Temperature 71 °F 80 °F 99 °F (1911)
Min Temperature 58 °F 61 °F 43 °F (1940)
Degree Days  
Heating Degree Days 0 0  
Month to date heating degree days 1 0  
Since 1 June heating degree days 35 47  
Since 1 July heating degree days 23 8  
Cooling Degree Days 0 6  
Month to date cooling degree days 23 48  
Year to date cooling degree days 420 381  
Since 1 June cooling degree days 345 340  
Growing Degree Days 14 (Base 50)    
Moisture  
Dew Point 61 °F    
Average Humidity 85    
Maximum Humidity 93    
Minimum Humidity 76    
Precipitation  
Precipitation 0.32 in 0.13 in 1.93 in (1995)
Month to date precipitation 0.34 1.12  
Year to date precipitation 20.73 27.31  
Snow  
Snow 0.00 in - - ()
Month to date snowfall 0.0  
Since 1 September snowfall 76.3  
Snow Depth 0.00 in    
Sea Level Pressure  
Sea Level Pressure 30.09 in    
Wind  
Wind Speed 7 mph (SE)    
Max Wind Speed 14 mph    
Max Gust Speed 21 mph    
Visibility 7 miles    
Events Rain    
T = Trace of Precipitation, MM = Missing Value Source: NWS Daily Summary

Daily Weather History Graph

Daily Weather History Graph

Search for Another Location

Airport or City:

Trip Planner

Search our weather history database for the weather conditions in past years. The results will help you decide how hot, cold, wet, or windy it might be!

Date:

Astronomy

Aug. 08, 2014 Rise Set
Actual Time 6:33 AM EDT 8:25 PM EDT
Civil Twilight 6:05 AM EDT 8:54 PM EDT
Nautical Twilight 5:30 AM EDT 9:28 PM EDT
Astronomical Twilight 4:53 AM EDT 10:05 PM EDT
Moon 6:35 PM EDT (8/8) 4:05 AM EDT (8/8)
Length of Visible Light 14h 48m
Length of Day
13h 51m
Waxing Gibbous, 93% of the Moon is Illuminated
Aug 8
Waxing Gibbous
Aug 10
Full
Aug 17
Last Quarter
Aug 25
New
Sep 2
First Quarter

Hourly Weather History & Observations

Time (EDT) Temp. Dew Point Humidity Pressure Visibility Wind Dir Wind Speed Gust Speed Precip Events Conditions
12:51 AM 57.9 °F 53.1 °F 84% 30.07 in 10.0 mi Calm Calm - N/A   Clear
1:51 AM 57.2 °F 53.6 °F 88% 30.14 in 10.0 mi Calm Calm - N/A   Clear
2:51 AM 60.1 °F 54.0 °F 80% 30.05 in 10.0 mi SSE 3.5 mph - N/A   Partly Cloudy
3:51 AM 63.0 °F 55.0 °F 75% 30.03 in 10.0 mi ESE 6.9 mph - N/A   Clear
4:51 AM 63.0 °F 55.0 °F 75% 30.04 in 10.0 mi SE 10.4 mph - N/A   Clear
6:51 AM 64.0 °F 57.9 °F 80% 30.07 in 10.0 mi SE 9.2 mph - N/A   Clear
7:51 AM 64.4 °F 59.0 °F 83% 30.15 in 7.0 mi SSE 10.4 mph 20.7 mph N/A   Clear
8:51 AM 66.9 °F 60.1 °F 79% 30.09 in 8.0 mi SE 11.5 mph - N/A   Clear
9:51 AM 68.0 °F 60.1 °F 76% 30.10 in 8.0 mi SE 9.2 mph 20.7 mph N/A   Clear
10:51 AM 68.0 °F 60.8 °F 78% 30.17 in 7.0 mi SE 10.4 mph - N/A   Scattered Clouds
11:51 AM 69.1 °F 61.0 °F 75% 30.10 in 7.0 mi SE 12.7 mph 19.6 mph 0.00 in Rain Light Rain
12:51 PM 70.0 °F 63.0 °F 78% 30.11 in 6.0 mi SSE 6.9 mph - 0.00 in Rain Light Rain
1:51 PM 70.0 °F 64.0 °F 81% 30.11 in 5.0 mi SSE 5.8 mph - 0.00 in Rain Light Rain
2:51 PM 70.0 °F 64.9 °F 84% 30.08 in 4.0 mi SE 3.5 mph - 0.02 in Rain Light Rain
3:23 PM 70.0 °F 66.0 °F 87% 30.14 in 4.0 mi SSE 9.2 mph - 0.00 in Rain Light Rain
3:51 PM 69.1 °F 64.9 °F 87% 30.07 in 5.0 mi SE 8.1 mph - 0.00 in   Overcast
4:33 PM 68.0 °F 64.9 °F 90% 30.14 in 2.5 mi SSE 4.6 mph - 0.05 in Rain Rain
4:40 PM 68.0 °F 64.0 °F 87% 30.14 in 3.0 mi SSE 5.8 mph - 0.06 in Rain Rain
4:51 PM 66.9 °F 64.0 °F 90% 30.07 in 4.0 mi SSE 5.8 mph - 0.07 in Rain Rain
5:51 PM 66.9 °F 64.0 °F 90% 30.06 in 8.0 mi Variable 3.5 mph - 0.05 in Rain Light Rain
6:51 PM 66.2 °F 62.6 °F 88% 30.14 in 7.0 mi SSW 3.5 mph - N/A Rain Light Rain
7:51 PM 66.0 °F 63.0 °F 90% 30.06 in 4.0 mi Calm Calm - 0.07 in Rain Rain
8:03 PM 66.0 °F 64.0 °F 93% 30.13 in 2.5 mi Calm Calm - 0.02 in Rain Rain
8:16 PM 66.0 °F 63.0 °F 90% 30.13 in 3.0 mi SE 5.8 mph - 0.06 in Rain Rain
8:25 PM 66.0 °F 63.0 °F 90% 30.12 in 4.0 mi SE 6.9 mph - 0.06 in Rain Light Rain
8:51 PM 66.0 °F 63.0 °F 90% 30.04 in 10.0 mi SE 8.1 mph - 0.08 in Rain Light Rain
9:51 PM 64.9 °F 62.1 °F 90% 30.05 in 10.0 mi SE 6.9 mph - 0.00 in Rain Light Rain
10:11 PM 64.9 °F 62.1 °F 90% 30.14 in 10.0 mi Variable 6.9 mph - 0.00 in   Overcast
10:51 PM 64.9 °F 62.1 °F 90% 30.06 in 10.0 mi SE 8.1 mph - 0.00 in   Overcast
11:06 PM 64.4 °F 62.6 °F 94% 30.14 in 10.0 mi SSE 8.1 mph - N/A   Overcast
11:51 PM 64.9 °F 62.1 °F 90% 30.05 in 10.0 mi SE 9.2 mph - N/A   Overcast